DLH7LV EDDF-LQSA

Flight info

Callsign DLH7LV
Flight time 1h 20m
Altitude 37000
Route CINDY8S CINDY Z74 LAMPU DCT NOMBO Y161 MAH DCT VAVOR DCT RADIZ DCT KUSIB DCT OKSIG DCT MARIL L608 BOSNA
Aircraft A319/M-SDE2E3FGIJ1LORWXYZ/HB1

Departure

Time 2026-05-08 18:56
Airport Frankfurt Main Airport (EDDF)

Arrival

Time 2026-05-08 20:17
Airport Sarajevo International Airport (LQSA)
Time Latitude Longitude Altitude Speed Heading
2026-05-08 18:05 50.04580 8.56623 356 ft 0 kts 115°
2026-05-08 18:20 50.04580 8.56622 356 ft 0 kts 115°
2026-05-08 18:20 50.04580 8.56623 356 ft 0 kts 115°
2026-05-08 18:21 50.04580 8.56622 356 ft 0 kts 115°
2026-05-08 18:40 50.04585 8.56604 364 ft 4 kts 115°
2026-05-08 18:41 50.04597 8.56567 360 ft 4 kts 117°
2026-05-08 18:41 50.04610 8.56530 363 ft 4 kts 126°
2026-05-08 18:41 50.04628 8.56503 362 ft 4 kts 167°
2026-05-08 18:41 50.04633 8.56498 361 ft 4 kts 204°
2026-05-08 18:42 50.04609 8.56481 361 ft 4 kts 204°
2026-05-08 18:42 50.04584 8.56463 356 ft 4 kts 205°
2026-05-08 18:42 50.04576 8.56458 356 ft 0 kts 205°
2026-05-08 18:45 50.04576 8.56457 356 ft 1 kts 205°
2026-05-08 18:45 50.04543 8.56434 357 ft 9 kts 205°
2026-05-08 18:45 50.04520 8.56395 356 ft 2 kts 248°
2026-05-08 18:45 50.04519 8.56393 356 ft 0 kts 248°
2026-05-08 18:46 50.04519 8.56390 356 ft 1 kts 248°
2026-05-08 18:47 50.04510 8.56356 362 ft 6 kts 249°
2026-05-08 18:47 50.04491 8.56278 356 ft 10 kts 249°
2026-05-08 18:47 50.04467 8.56179 362 ft 9 kts 249°
2026-05-08 18:47 50.04445 8.56085 356 ft 10 kts 249°
2026-05-08 18:48 50.04398 8.56026 356 ft 9 kts 179°
2026-05-08 18:48 50.04332 8.56061 360 ft 12 kts 160°
2026-05-08 18:48 50.04294 8.56166 355 ft 14 kts 75°
2026-05-08 18:48 50.04256 8.56265 354 ft 13 kts 160°
2026-05-08 18:49 50.04188 8.56305 356 ft 1 kts 159°
2026-05-08 18:49 50.04184 8.56307 355 ft 2 kts 159°
2026-05-08 18:49 50.04137 8.56312 353 ft 11 kts 216°
2026-05-08 18:49 50.04101 8.56168 358 ft 15 kts 250°
2026-05-08 18:50 50.04062 8.56007 355 ft 16 kts 249°
2026-05-08 18:50 50.04021 8.55835 357 ft 18 kts 249°
2026-05-08 18:50 50.03976 8.55646 356 ft 20 kts 249°
2026-05-08 18:50 50.03931 8.55458 353 ft 17 kts 250°
2026-05-08 18:51 50.03886 8.55273 352 ft 20 kts 249°
2026-05-08 18:51 50.03847 8.55085 349 ft 17 kts 270°
2026-05-08 18:51 50.03930 8.54993 355 ft 15 kts 339°
2026-05-08 18:51 50.03989 8.54888 352 ft 16 kts 251°
2026-05-08 18:52 50.03943 8.54701 350 ft 20 kts 250°
2026-05-08 18:52 50.03892 8.54486 353 ft 23 kts 250°
2026-05-08 18:52 50.03809 8.54252 347 ft 27 kts 241°
2026-05-08 18:52 50.03741 8.53978 345 ft 27 kts 249°
2026-05-08 18:53 50.03674 8.53696 345 ft 28 kts 250°
2026-05-08 18:53 50.03604 8.53415 337 ft 28 kts 250°
2026-05-08 18:53 50.03536 8.53133 337 ft 28 kts 249°
2026-05-08 18:53 50.03468 8.52859 335 ft 22 kts 247°
2026-05-08 18:54 50.03433 8.52730 333 ft 6 kts 248°
2026-05-08 18:54 50.03426 8.52703 333 ft 0 kts 248°
2026-05-08 18:54 50.03426 8.52701 333 ft 1 kts 248°
2026-05-08 18:55 50.03382 8.52602 334 ft 11 kts 202°
2026-05-08 18:55 50.03289 8.52594 334 ft 16 kts 180°
2026-05-08 18:55 50.03160 8.52595 335 ft 19 kts 179°
2026-05-08 18:56 50.02979 8.52598 335 ft 49 kts 179°
2026-05-08 18:56 50.02379 8.52604 335 ft 122 kts 179°
2026-05-08 18:56 50.01328 8.52618 435 ft 168 kts 179°
2026-05-08 18:56 50.00160 8.52625 1109 ft 169 kts 179°
2026-05-08 18:57 49.98934 8.52631 1640 ft 185 kts 178°
2026-05-08 18:57 49.98027 8.52665 1901 ft 201 kts 173°
2026-05-08 18:57 49.96286 8.53928 2434 ft 223 kts 130°
2026-05-08 18:57 49.95446 8.55948 3353 ft 223 kts 117°
2026-05-08 18:58 49.94696 8.58071 4312 ft 227 kts 117°
2026-05-08 18:58 49.94084 8.60350 5132 ft 234 kts 101°
2026-05-08 18:58 49.93908 8.63014 5609 ft 259 kts 94°
2026-05-08 18:58 49.93771 8.65904 6225 ft 276 kts 97°
2026-05-08 18:59 49.93210 8.68758 7149 ft 280 kts 118°
2026-05-08 18:59 49.92046 8.71204 8009 ft 284 kts 133°
2026-05-08 18:59 49.90705 8.73463 8957 ft 287 kts 135°
2026-05-08 18:59 49.89316 8.75728 9870 ft 292 kts 135°
2026-05-08 19:00 49.87886 8.78044 10487 ft 307 kts 135°
2026-05-08 19:00 49.86353 8.80523 10802 ft 330 kts 135°
2026-05-08 19:00 49.84729 8.83158 11131 ft 343 kts 135°
2026-05-08 19:00 49.83081 8.85849 11950 ft 346 kts 135°
2026-05-08 19:01 49.81424 8.88568 12807 ft 348 kts 134°
2026-05-08 19:01 49.79756 8.91304 13646 ft 351 kts 134°
2026-05-08 19:01 49.78074 8.94062 14386 ft 354 kts 135°
2026-05-08 19:01 49.76370 8.96852 15075 ft 358 kts 135°
2026-05-08 19:02 49.74647 8.99669 15761 ft 363 kts 135°
2026-05-08 19:02 49.72904 9.02516 16439 ft 367 kts 135°
2026-05-08 19:02 49.71139 9.05396 17105 ft 371 kts 135°
2026-05-08 19:02 49.69358 9.08303 17792 ft 375 kts 135°
2026-05-08 19:03 49.67553 9.11239 18472 ft 379 kts 135°
2026-05-08 19:03 49.65726 9.14199 19055 ft 382 kts 135°
2026-05-08 19:03 49.63882 9.17183 19650 ft 386 kts 135°
2026-05-08 19:03 49.62021 9.20197 20256 ft 390 kts 135°
2026-05-08 19:04 49.60144 9.23238 20864 ft 393 kts 135°
2026-05-08 19:04 49.58249 9.26303 21445 ft 397 kts 135°
2026-05-08 19:04 49.56335 9.29398 22053 ft 401 kts 135°
2026-05-08 19:04 49.54404 9.32515 22633 ft 404 kts 136°
2026-05-08 19:05 49.52457 9.35658 23201 ft 407 kts 136°
2026-05-08 19:05 49.50492 9.38822 23744 ft 411 kts 136°
2026-05-08 19:05 49.48511 9.42005 24204 ft 414 kts 136°
2026-05-08 19:05 49.46509 9.45212 24637 ft 417 kts 136°
2026-05-08 19:06 49.44494 9.48436 25087 ft 420 kts 136°
2026-05-08 19:06 49.42466 9.51682 25541 ft 422 kts 136°
2026-05-08 19:06 49.40443 9.54918 25989 ft 425 kts 136°
2026-05-08 19:06 49.38372 9.58228 26443 ft 427 kts 136°
2026-05-08 19:07 49.36308 9.61519 26898 ft 429 kts 136°
2026-05-08 19:07 49.34230 9.64830 27343 ft 432 kts 136°
2026-05-08 19:07 49.32141 9.68156 27780 ft 434 kts 136°
2026-05-08 19:07 49.30038 9.71493 28207 ft 437 kts 137°
2026-05-08 19:08 49.27918 9.74847 28639 ft 439 kts 137°
2026-05-08 19:08 49.25786 9.78215 29059 ft 442 kts 137°
2026-05-08 19:08 49.23640 9.81605 29448 ft 444 kts 137°
2026-05-08 19:08 49.21485 9.85009 29833 ft 447 kts 137°
2026-05-08 19:09 49.19343 9.88392 30201 ft 450 kts 137°
2026-05-08 19:09 49.17162 9.91836 30506 ft 452 kts 137°
2026-05-08 19:09 49.14965 9.95300 30789 ft 455 kts 137°
2026-05-08 19:09 49.12755 9.98774 31064 ft 458 kts 137°
2026-05-08 19:10 49.10524 10.02272 31331 ft 461 kts 137°
2026-05-08 19:10 49.08281 10.05780 31647 ft 462 kts 137°
2026-05-08 19:10 49.06033 10.09293 31986 ft 463 kts 137°
2026-05-08 19:10 49.03737 10.12741 32337 ft 464 kts 139°
2026-05-08 19:11 49.01386 10.16109 32695 ft 464 kts 140°
2026-05-08 19:11 48.99001 10.19422 33039 ft 465 kts 141°
2026-05-08 19:11 48.96598 10.22719 33387 ft 465 kts 141°
2026-05-08 19:11 48.94195 10.26022 33764 ft 466 kts 141°
2026-05-08 19:12 48.91801 10.29346 34134 ft 467 kts 140°
2026-05-08 19:12 48.89414 10.32693 34456 ft 467 kts 140°
2026-05-08 19:12 48.87035 10.36050 34767 ft 467 kts 140°
2026-05-08 19:12 48.84659 10.39411 35101 ft 467 kts 140°
2026-05-08 19:13 48.82294 10.42784 35391 ft 467 kts 139°
2026-05-08 19:13 48.79990 10.46269 35669 ft 468 kts 136°
2026-05-08 19:13 48.77748 10.49846 35955 ft 468 kts 135°
2026-05-08 19:13 48.75538 10.53479 36241 ft 468 kts 135°
2026-05-08 19:14 48.73342 10.57114 36526 ft 468 kts 135°
2026-05-08 19:14 48.71136 10.60736 36799 ft 467 kts 135°
2026-05-08 19:14 48.68916 10.64331 37038 ft 468 kts 136°
2026-05-08 19:15 48.64439 10.71452 37104 ft 466 kts 136°
2026-05-08 19:15 48.59949 10.78519 37104 ft 466 kts 136°
2026-05-08 19:16 48.55511 10.85552 37087 ft 466 kts 136°
2026-05-08 19:16 48.51066 10.92681 37088 ft 466 kts 136°
2026-05-08 19:17 48.46614 10.99771 37088 ft 466 kts 136°
2026-05-08 19:17 48.42111 11.06789 37089 ft 466 kts 137°
2026-05-08 19:18 48.37549 11.13852 37083 ft 477 kts 137°
2026-05-08 19:18 48.32892 11.21056 37081 ft 482 kts 137°
2026-05-08 19:19 48.28213 11.28289 37083 ft 483 kts 136°
2026-05-08 19:19 48.24288 11.36493 37085 ft 488 kts 122°
2026-05-08 19:20 48.20903 11.45316 37083 ft 488 kts 122°
2026-05-08 19:20 48.17500 11.54121 37085 ft 488 kts 122°
2026-05-08 19:21 48.14079 11.62913 37079 ft 488 kts 122°
2026-05-08 19:21 48.10649 11.71686 37085 ft 488 kts 123°
2026-05-08 19:22 48.07219 11.80449 37087 ft 488 kts 123°
2026-05-08 19:22 48.03786 11.89204 37084 ft 488 kts 123°
2026-05-08 19:23 48.00344 11.97945 37056 ft 488 kts 123°
2026-05-08 19:23 47.96898 12.06667 37072 ft 487 kts 123°
2026-05-08 19:24 47.93221 12.15114 37075 ft 483 kts 134°
2026-05-08 19:24 47.88340 12.21843 37076 ft 477 kts 143°
2026-05-08 19:25 47.83249 12.28192 37078 ft 477 kts 143°
2026-05-08 19:25 47.78195 12.34505 37073 ft 478 kts 143°
2026-05-08 19:26 47.73105 12.40852 37060 ft 478 kts 143°
2026-05-08 19:26 47.68003 12.47188 37061 ft 478 kts 143°
2026-05-08 19:27 47.62924 12.53560 37064 ft 480 kts 139°
2026-05-08 19:27 47.58460 12.60969 37071 ft 482 kts 134°
2026-05-08 19:28 47.54068 12.68467 37070 ft 481 kts 134°
2026-05-08 19:28 47.49668 12.75928 37078 ft 481 kts 134°
2026-05-08 19:29 47.45267 12.83366 37087 ft 481 kts 134°
2026-05-08 19:29 47.40860 12.90803 37104 ft 481 kts 134°
2026-05-08 19:30 47.36452 12.98225 37092 ft 481 kts 134°
2026-05-08 19:30 47.32038 13.05622 37103 ft 480 kts 134°
2026-05-08 19:31 47.27626 13.13002 37110 ft 480 kts 135°
2026-05-08 19:31 47.23965 13.19128 37099 ft 479 kts 134°
2026-05-08 19:32 47.18806 13.27717 37102 ft 479 kts 134°
2026-05-08 19:32 47.15128 13.33812 37087 ft 479 kts 135°
2026-05-08 19:33 47.10876 13.40849 37102 ft 479 kts 135°
2026-05-08 19:33 47.06447 13.48158 37093 ft 479 kts 135°
2026-05-08 19:34 47.02019 13.55456 37102 ft 479 kts 135°
2026-05-08 19:34 46.97587 13.62747 37091 ft 479 kts 135°
2026-05-08 19:35 46.93150 13.70019 37090 ft 479 kts 135°
2026-05-08 19:35 46.88712 13.77272 37097 ft 478 kts 135°
2026-05-08 19:36 46.84271 13.84515 37094 ft 479 kts 135°
2026-05-08 19:36 46.79853 13.91696 37091 ft 478 kts 135°
2026-05-08 19:37 46.75366 13.98955 37073 ft 478 kts 135°
2026-05-08 19:37 46.70915 14.06149 37074 ft 478 kts 135°
2026-05-08 19:38 46.66457 14.13336 37091 ft 478 kts 135°
2026-05-08 19:38 46.62002 14.20513 37097 ft 478 kts 135°
2026-05-08 19:39 46.57571 14.27632 37077 ft 478 kts 135°
2026-05-08 19:39 46.53103 14.34773 37090 ft 477 kts 135°
2026-05-08 19:40 46.48634 14.41899 37091 ft 477 kts 135°
2026-05-08 19:40 46.44161 14.49014 37078 ft 477 kts 135°
2026-05-08 19:41 46.39678 14.56122 37084 ft 477 kts 135°
2026-05-08 19:41 46.35194 14.63216 37085 ft 477 kts 136°
2026-05-08 19:42 46.30713 14.70296 37095 ft 477 kts 136°
2026-05-08 19:42 46.26231 14.77361 37091 ft 477 kts 136°
2026-05-08 19:43 46.21743 14.84413 37088 ft 477 kts 136°
2026-05-08 19:43 46.17247 14.91443 37062 ft 477 kts 136°
2026-05-08 19:44 46.12752 14.98467 37076 ft 476 kts 136°
2026-05-08 19:44 46.08261 15.05479 37083 ft 476 kts 136°
2026-05-08 19:45 46.03794 15.12423 37085 ft 476 kts 136°
2026-05-08 19:45 45.99292 15.19396 37089 ft 476 kts 136°
2026-05-08 19:46 45.94790 15.26364 37086 ft 476 kts 136°
2026-05-08 19:46 45.88023 15.36781 37095 ft 475 kts 136°
2026-05-08 19:47 45.83509 15.43717 37095 ft 476 kts 136°
2026-05-08 19:47 45.78990 15.50644 37092 ft 476 kts 136°
2026-05-08 19:48 45.74471 15.57559 37095 ft 476 kts 136°
2026-05-08 19:48 45.69945 15.64465 37076 ft 476 kts 136°
2026-05-08 19:49 45.65412 15.71356 37078 ft 475 kts 136°
2026-05-08 19:49 45.60881 15.78235 37078 ft 475 kts 136°
2026-05-08 19:50 45.56343 15.85101 37073 ft 475 kts 136°
2026-05-08 19:50 45.51806 15.91947 37078 ft 475 kts 136°
2026-05-08 19:51 45.47269 15.98777 37078 ft 474 kts 136°
2026-05-08 19:51 45.42729 16.05593 37063 ft 474 kts 136°
2026-05-08 19:52 45.38185 16.12392 37056 ft 474 kts 136°
2026-05-08 19:52 45.33669 16.19146 37065 ft 474 kts 137°
2026-05-08 19:53 45.29210 16.25824 36682 ft 462 kts 137°
2026-05-08 19:53 45.26997 16.29126 36035 ft 460 kts 137°
2026-05-08 19:53 45.24791 16.32404 35404 ft 458 kts 137°
2026-05-08 19:54 45.22592 16.35659 34798 ft 455 kts 137°
2026-05-08 19:54 45.20408 16.38885 34219 ft 452 kts 137°
2026-05-08 19:54 45.18242 16.42086 33695 ft 447 kts 137°
2026-05-08 19:54 45.16096 16.45258 33050 ft 445 kts 137°
2026-05-08 19:55 45.13969 16.48451 32212 ft 447 kts 135°
2026-05-08 19:55 45.11930 16.51756 31580 ft 444 kts 133°
2026-05-08 19:55 45.09972 16.55127 30958 ft 442 kts 131°
2026-05-08 19:55 45.08066 16.58517 30352 ft 439 kts 131°
2026-05-08 19:56 45.06178 16.61896 29701 ft 436 kts 131°
2026-05-08 19:56 45.04297 16.65231 29062 ft 432 kts 131°
2026-05-08 19:56 45.02412 16.68514 28439 ft 428 kts 132°
2026-05-08 19:56 45.00528 16.71744 27860 ft 424 kts 132°
2026-05-08 19:57 44.98654 16.74927 27285 ft 419 kts 132°
2026-05-08 19:57 44.96792 16.78076 26715 ft 416 kts 132°
2026-05-08 19:57 44.94948 16.81195 26166 ft 412 kts 132°
2026-05-08 19:57 44.93124 16.84287 25629 ft 408 kts 132°
2026-05-08 19:58 44.91317 16.87359 25114 ft 405 kts 132°
2026-05-08 19:58 44.89528 16.90404 24614 ft 401 kts 131°
2026-05-08 19:58 44.87753 16.93420 24150 ft 398 kts 131°
2026-05-08 19:58 44.85991 16.96407 23687 ft 395 kts 131°
2026-05-08 19:59 44.84239 16.99376 23133 ft 393 kts 131°
2026-05-08 19:59 44.82489 17.02321 22607 ft 391 kts 131°
2026-05-08 19:59 44.80730 17.05216 22120 ft 387 kts 132°
2026-05-08 19:59 44.78971 17.08067 21651 ft 384 kts 132°
2026-05-08 20:00 44.77219 17.10894 21181 ft 381 kts 132°
2026-05-08 20:00 44.75483 17.13694 20713 ft 378 kts 132°
2026-05-08 20:00 44.73761 17.16471 20253 ft 375 kts 132°
2026-05-08 20:00 44.72054 17.19229 19798 ft 372 kts 132°
2026-05-08 20:01 44.70428 17.21861 19372 ft 369 kts 132°
2026-05-08 20:01 44.68748 17.24578 18929 ft 367 kts 132°
2026-05-08 20:01 44.67084 17.27272 18505 ft 363 kts 132°
2026-05-08 20:01 44.65439 17.29933 18064 ft 359 kts 132°
2026-05-08 20:02 44.63808 17.32570 17570 ft 356 kts 132°
2026-05-08 20:02 44.62188 17.35190 17052 ft 355 kts 131°
2026-05-08 20:02 44.60583 17.37803 16571 ft 352 kts 131°
2026-05-08 20:02 44.58992 17.40398 16117 ft 350 kts 131°
2026-05-08 20:03 44.57411 17.42979 15657 ft 348 kts 131°
2026-05-08 20:03 44.55862 17.45508 15204 ft 345 kts 131°
2026-05-08 20:03 44.54300 17.48054 14755 ft 343 kts 131°
2026-05-08 20:03 44.52746 17.50581 14323 ft 341 kts 131°
2026-05-08 20:04 44.51200 17.53093 13888 ft 339 kts 131°
2026-05-08 20:04 44.49664 17.55583 13437 ft 336 kts 131°
2026-05-08 20:04 44.48142 17.58048 13007 ft 332 kts 131°
2026-05-08 20:04 44.46640 17.60482 12566 ft 329 kts 131°
2026-05-08 20:05 44.45151 17.62896 12085 ft 326 kts 130°
2026-05-08 20:05 44.43671 17.65296 11619 ft 324 kts 130°
2026-05-08 20:05 44.42202 17.67672 11160 ft 322 kts 130°
2026-05-08 20:05 44.40739 17.70029 10702 ft 320 kts 130°
2026-05-08 20:06 44.39287 17.72364 10260 ft 317 kts 130°
2026-05-08 20:06 44.37816 17.74652 10045 ft 313 kts 135°
2026-05-08 20:06 44.36160 17.76506 10012 ft 297 kts 145°
2026-05-08 20:06 44.34409 17.77863 10007 ft 280 kts 151°
2026-05-08 20:07 44.32691 17.79095 9870 ft 275 kts 151°
2026-05-08 20:07 44.30996 17.80317 9740 ft 274 kts 151°
2026-05-08 20:07 44.29306 17.81539 9609 ft 274 kts 151°
2026-05-08 20:07 44.27614 17.82761 9480 ft 274 kts 151°
2026-05-08 20:08 44.25923 17.83980 9345 ft 273 kts 151°
2026-05-08 20:08 44.24233 17.85197 9209 ft 273 kts 151°
2026-05-08 20:08 44.22548 17.86410 9078 ft 272 kts 151°
2026-05-08 20:08 44.20866 17.87624 8950 ft 272 kts 151°
2026-05-08 20:09 44.19185 17.88835 8819 ft 272 kts 151°
2026-05-08 20:09 44.17505 17.90043 8689 ft 271 kts 151°
2026-05-08 20:09 44.15826 17.91246 8561 ft 271 kts 151°
2026-05-08 20:09 44.14151 17.92444 8435 ft 270 kts 150°
2026-05-08 20:10 44.12481 17.93637 8305 ft 269 kts 150°
2026-05-08 20:10 44.10819 17.94825 8171 ft 268 kts 150°
2026-05-08 20:10 44.09157 17.96011 8059 ft 268 kts 150°
2026-05-08 20:10 44.07517 17.97180 7977 ft 268 kts 151°
2026-05-08 20:11 44.05857 17.98363 7981 ft 268 kts 150°
2026-05-08 20:11 44.04195 17.99547 7985 ft 268 kts 151°
2026-05-08 20:11 44.02533 18.00733 7988 ft 269 kts 150°
2026-05-08 20:11 44.00870 18.01915 7986 ft 269 kts 153°
2026-05-08 20:12 43.99167 18.02968 7827 ft 266 kts 155°
2026-05-08 20:12 43.97464 18.03972 7441 ft 265 kts 155°
2026-05-08 20:12 43.95768 18.04968 6996 ft 264 kts 155°
2026-05-08 20:12 43.94084 18.05953 6523 ft 262 kts 155°
2026-05-08 20:13 43.92517 18.07238 5892 ft 262 kts 135°
2026-05-08 20:13 43.91401 18.09163 5487 ft 253 kts 116°
2026-05-08 20:13 43.90602 18.11299 5128 ft 247 kts 115°
2026-05-08 20:13 43.89827 18.13393 4791 ft 241 kts 115°
2026-05-08 20:14 43.89080 18.15400 4449 ft 227 kts 115°
2026-05-08 20:14 43.88377 18.17287 4141 ft 214 kts 116°
2026-05-08 20:14 43.87717 18.19061 3863 ft 201 kts 116°
2026-05-08 20:14 43.87091 18.20739 3577 ft 191 kts 116°
2026-05-08 20:15 43.86500 18.22324 3306 ft 179 kts 116°
2026-05-08 20:15 43.85944 18.23816 3064 ft 169 kts 116°
2026-05-08 20:15 43.85428 18.25196 2832 ft 153 kts 116°
2026-05-08 20:15 43.84961 18.26450 2600 ft 140 kts 115°
2026-05-08 20:16 43.84519 18.27634 2385 ft 135 kts 116°
2026-05-08 20:16 43.84092 18.28775 2175 ft 132 kts 116°
2026-05-08 20:16 43.83668 18.29912 2010 ft 134 kts 115°
2026-05-08 20:16 43.83236 18.31078 1805 ft 138 kts 115°
2026-05-08 20:17 43.82800 18.32236 1675 ft 127 kts 116°
2026-05-08 20:17 43.82465 18.33133 1689 ft 81 kts 117°
2026-05-08 20:17 43.82284 18.33616 1696 ft 37 kts 117°
2026-05-08 20:17 43.82181 18.33891 1702 ft 29 kts 117°
2026-05-08 20:18 43.82091 18.34128 1707 ft 27 kts 118°
2026-05-08 20:18 43.82007 18.34351 1710 ft 22 kts 117°
2026-05-08 20:18 43.81946 18.34517 1714 ft 15 kts 115°
2026-05-08 20:18 43.81992 18.34617 1715 ft 14 kts 22°
2026-05-08 20:19 43.82097 18.34582 1713 ft 18 kts 313°
2026-05-08 20:19 43.82163 18.34413 1708 ft 22 kts 297°
2026-05-08 20:19 43.82237 18.34216 1703 ft 25 kts 297°
2026-05-08 20:19 43.82308 18.34027 1697 ft 21 kts 297°
2026-05-08 20:20 43.82380 18.33834 1690 ft 20 kts 297°
2026-05-08 20:20 43.82432 18.33696 1689 ft 16 kts 297°
2026-05-08 20:20 43.82456 18.33651 1685 ft 6 kts 336°
2026-05-08 20:20 43.82496 18.33676 1692 ft 7 kts 33°
2026-05-08 20:21 43.82516 18.33690 1688 ft 0 kts 27°
2026-05-08 20:21 43.82517 18.33691 1688 ft 0 kts 27°